Flag for Vietnam Weather past 2 weeks in Ho Chi Minh, Vietnam

Now
90 °F

Passing clouds.


Feels Like: 91 °F
Forecast: 79 / 95 °F
Wind: 5 mph from East

Location: Ho Chi Minh

Current Time: Mar 28, 2015 at 9:24:40 AM

Latest Report: Mar 28, 2015 at 9:00 AM


Visibility: N/A

Pressure: 29.92 "Hg

Humidity: 43%

Dew point: 64 °F

Location of Ho Chi MinhLocation

Historic Weather in Ho Chi Minh — Graph

°F

Ho Chi Minh temperature yesterday

Maximum temperature yesterday: 100 °F (at 1:30 PM)
Minimum temperature yesterday: 79 °F (at 4:00 AM)
Average temperature yesterday: 87 °F

Past Weeks' High & Low Weather Summary

 TemperatureHumidityPressure
High100 °F (Mar 27, 1:30 PM)83% (Mar 16, 4:00 AM)30.01 "Hg (Mar 16, 4:00 AM)
Low75 °F (Mar 19, 5:30 AM)27% (Mar 25, 12:30 PM)29.74 "Hg (Mar 19, 2:30 PM)
Average84 °F60%29.89 "Hg
* Reported Mar 13 8:00 AM — Mar 28 8:00 AM, Ho Chi Minh, Weather by CustomWeather, © 2015

Note: Actual official high and low records may vary slightly from our data, if they occured in-between our weather recording intervals... More about our weather records

Advertising

Ho Chi Minh weather history for previous 24 hours

 ConditionsComfort  
Time TempWeatherWind HumidityBarometerVisibility
8:00 AM
Sat, Mar 28
84 °FSunny.3 mph55%29.92 "Hg10 mi
7:30 AM82 °FSunny.3 mph62%29.92 "Hg10 mi
7:00 AM81 °FSunny.3 mph70%29.92 "Hg10 mi
6:30 AM79 °FSunny.5 mph74%29.92 "Hg10 mi
6:00 AM77 °FPassing clouds.3 mph74%29.89 "HgN/A
5:30 AM77 °FPassing clouds.3 mph74%29.89 "HgN/A
5:00 AM77 °FPassing clouds.3 mph74%29.89 "HgN/A
4:30 AM79 °FPassing clouds.2 mph70%29.86 "HgN/A
4:00 AM79 °FPassing clouds.3 mph70%29.86 "HgN/A
3:30 AM81 °FPassing clouds.5 mph62%29.83 "HgN/A
3:00 AM81 °FPassing clouds.3 mph62%29.86 "HgN/A
2:30 AM82 °FPassing clouds.7 mph58%29.86 "HgN/A
2:00 AM82 °FPassing clouds.7 mph58%29.86 "HgN/A
1:30 AM82 °FPassing clouds.9 mph58%29.86 "HgN/A
1:00 AM82 °FPassing clouds.12 mph58%29.89 "HgN/A
12:30 AM84 °FPassing clouds.9 mph55%29.89 "HgN/A
12:00 AM84 °FPassing clouds.10 mph55%29.89 "HgN/A
11:30 PM
Fri, Mar 27
84 °FPassing clouds.10 mph55%29.92 "HgN/A
11:00 PM84 °FPassing clouds.10 mph55%29.92 "HgN/A
10:30 PM82 °FPassing clouds.8 mph58%29.92 "HgN/A
10:00 PM84 °FPassing clouds.7 mph55%29.92 "HgN/A
9:30 PM84 °FPassing clouds.12 mph55%29.92 "HgN/A
6:30 PM88 °FPassing clouds.10 mph49%29.86 "HgN/A
6:00 PM90 °FScattered clouds.8 mph46%29.86 "HgN/A
5:30 PM90 °FScattered clouds.No wind49%29.86 "HgN/A
5:00 PM88 °FThunderstorms. Scattered clouds.14 mph52%29.86 "Hg4 mi
4:30 PM90 °FThunderstorms. Scattered clouds.14 mph49%29.83 "Hg4 mi
3:30 PM97 °FScattered clouds.13 mph39%29.83 "HgN/A
3:00 PM99 °FScattered clouds.10 mph37%29.83 "HgN/A
2:30 PM97 °FScattered clouds.8 mph32%29.83 "HgN/A
2:00 PM99 °FScattered clouds.10 mph31%29.83 "HgN/A
1:30 PM100 °FScattered clouds.8 mph31%29.86 "HgN/A
1:00 PM95 °FScattered clouds.10 mph34%29.89 "HgN/A
12:30 PM95 °FScattered clouds.12 mph36%29.89 "HgN/A
12:00 PM97 °FScattered clouds.14 mph34%29.92 "HgN/A
11:30 AM93 °FScattered clouds.15 mph39%29.95 "HgN/A
11:00 AM93 °FScattered clouds.14 mph39%29.95 "HgN/A
9:30 AM90 °FPassing clouds.9 mph49%29.98 "HgN/A
9:00 AM88 °FPassing clouds.13 mph55%29.98 "HgN/A
Weather by CustomWeather, © 2015

See weather overviewHow to use our weather pages